QPF
0.17 0.19 0.18 0.14 0.13 0.14 0.13 0.14 0.14 0.17 0.21 0.25 0.27 0.26 0.24 0.23 0.21 0.17 0.12 0.09 0.06 0.03 0.01 0.00 0.00 0.00 0.00 0.00 0.00 0.00 0.00 0.00 0.00 0.00 0.00 0.00 0.00 0.00 0.00 0.00 0.00 0.00 0.00
0.13 0.15 0.16 0.14 0.14 0.16 0.16 0.15 0.14 0.15 0.18 0.21 0.21 0.23 0.20 0.18 0.18 0.17 0.13 0.09 0.07 0.04 0.01 0.00 0.00 0.00 0.00 0.00 0.00 0.00 0.00 0.00 0.01 0.01 0.00 0.00 0.00 0.00 0.00 0.00 0.00 0.00 0.00
0.10 0.12 0.12 0.12 0.12 0.12 0.17 0.19 0.16 0.16 0.17 0.20 0.21 0.20 0.19 0.15 0.14 0.13 0.12 0.09 0.07 0.04 0.02 0.01 0.00 0.00 0.00 0.00 0.01 0.01 0.01 0.00 0.00 0.00 0.00 0.00 0.00 0.00 0.00 0.00 0.00 0.00 0.00
0.08 0.11 0.10 0.10 0.12 0.11 0.14 0.19 0.19 0.17 0.17 0.18 0.18 0.19 0.18 0.13 0.11 0.11 0.10 0.08 0.06 0.05 0.03 0.01 0.00 0.00 0.00 0.00 0.00 0.00 0.00 0.00 0.01 0.01 0.01 0.01 0.01 0.01 0.01 0.01 0.01 0.01 0.00
0.08 0.09 0.09 0.10 0.11 0.11 0.12 0.15 0.18 0.18 0.17 0.18 0.17 0.17 0.16 0.13 0.10 0.10 0.10 0.09 0.06 0.05 0.03 0.02 0.01 0.01 0.00 0.00 0.00 0.00 0.01 0.01 0.01 0.02 0.02 0.02 0.02 0.02 0.02 0.02 0.01 0.00 0.00
0.06 0.06 0.07 0.09 0.11 0.13 0.12 0.13 0.14 0.16 0.17 0.18 0.18 0.16 0.15 0.12 0.11 0.11 0.10 0.08 0.07 0.05 0.03 0.03 0.02 0.01 0.01 0.00 0.00 0.01 0.01 0.01 0.02 0.02 0.02 0.02 0.02 0.02 0.02 0.02 0.01 0.01 0.01
0.05 0.04 0.05 0.07 0.09 0.13 0.14 0.13 0.12 0.13 0.15 0.16 0.16 0.15 0.13 0.11 0.11 0.11 0.11 0.10 0.07 0.05 0.04 0.03 0.02 0.02 0.01 0.01 0.01 0.01 0.02 0.02 0.02 0.02 0.03 0.03 0.03 0.02 0.02 0.02 0.02 0.02 0.02
0.04 0.04 0.05 0.05 0.06 0.11 0.14 0.12 0.10 0.11 0.12 0.14 0.14 0.13 0.12 0.10 0.11 0.11 0.13 0.13 0.11 0.07 0.05 0.04 0.03 0.02 0.01 0.01 0.01 0.02 0.02 0.03 0.04 0.04 0.04 0.03 0.03 0.03 0.03 0.03 0.03 0.03 0.03
0.05 0.05 0.05 0.05 0.05 0.08 0.12 0.14 0.12 0.10 0.10 0.11 0.13 0.14 0.10 0.08 0.09 0.10 0.11 0.12 0.12 0.10 0.07 0.05 0.03 0.03 0.02 0.02 0.02 0.03 0.03 0.04 0.05 0.05 0.04 0.04 0.04 0.04 0.03 0.03 0.03 0.03 0.03
0.05 0.06 0.06 0.05 0.04 0.05 0.08 0.13 0.14 0.12 0.11 0.10 0.11 0.13 0.12 0.08 0.08 0.09 0.10 0.10 0.11 0.10 0.08 0.05 0.04 0.03 0.03 0.03 0.03 0.03 0.03 0.03 0.03 0.04 0.04 0.03 0.03 0.03 0.03 0.02 0.02 0.03 0.03
0.05 0.07 0.04 0.03 0.03 0.03 0.05 0.10 0.13 0.14 0.13 0.10 0.09 0.09 0.11 0.09 0.09 0.10 0.12 0.10 0.08 0.07 0.06 0.05 0.04 0.04 0.04 0.05 0.05 0.04 0.05 0.05 0.05 0.04 0.04 0.03 0.02 0.02 0.02 0.02 0.02 0.02 0.02
0.06 0.06 0.04 0.03 0.02 0.02 0.04 0.08 0.12 0.13 0.12 0.10 0.08 0.07 0.08 0.09 0.08 0.10 0.12 0.11 0.09 0.08 0.06 0.04 0.04 0.05 0.05 0.06 0.07 0.07 0.08 0.07 0.05 0.04 0.04 0.03 0.03 0.03 0.03 0.03 0.02 0.02 0.02
0.05 0.05 0.04 0.02 0.02 0.02 0.03 0.06 0.11 0.12 0.10 0.10 0.09 0.07 0.07 0.07 0.09 0.11 0.12 0.13 0.11 0.09 0.08 0.07 0.06 0.06 0.07 0.08 0.11 0.11 0.10 0.06 0.05 0.05 0.05 0.04 0.04 0.04 0.04 0.03 0.03 0.03 0.02
0.05 0.05 0.04 0.03 0.02 0.02 0.03 0.05 0.08 0.10 0.09 0.08 0.08 0.08 0.07 0.07 0.09 0.10 0.11 0.11 0.12 0.12 0.11 0.10 0.10 0.10 0.10 0.09 0.10 0.10 0.08 0.06 0.05 0.05 0.05 0.05 0.05 0.05 0.04 0.03 0.03 0.02 0.03
0.05 0.05 0.05 0.05 0.05 0.05 0.05 0.05 0.06 0.06 0.07 0.07 0.06 0.07 0.06 0.05 0.07 0.10 0.10 0.09 0.09 0.10 0.11 0.11 0.12 0.12 0.12 0.10 0.09 0.07 0.07 0.07 0.07 0.06 0.05 0.06 0.06 0.05 0.04 0.03 0.03 0.02 0.02
0.05 0.05 0.06 0.06 0.07 0.06 0.04 0.04 0.06 0.07 0.08 0.08 0.06 0.06 0.07 0.07 0.08 0.10 0.10 0.10 0.10 0.13 0.14 0.12 0.11 0.10 0.09 0.08 0.08 0.07 0.07 0.07 0.07 0.07 0.08 0.07 0.07 0.06 0.05 0.04 0.03 0.02 0.02
0.06 0.05 0.06 0.06 0.05 0.04 0.03 0.03 0.05 0.09 0.13 0.11 0.09 0.07 0.08 0.09 0.08 0.09 0.10 0.13 0.14 0.15 0.14 0.13 0.12 0.10 0.08 0.07 0.06 0.05 0.05 0.05 0.06 0.08 0.09 0.10 0.09 0.08 0.07 0.05 0.04 0.03 0.02
0.07 0.05 0.05 0.04 0.04 0.03 0.02 0.03 0.03 0.05 0.08 0.10 0.11 0.10 0.10 0.10 0.10 0.10 0.11 0.14 0.17 0.18 0.14 0.12 0.10 0.09 0.08 0.08 0.07 0.07 0.07 0.07 0.08 0.08 0.09 0.09 0.08 0.07 0.06 0.05 0.04 0.03 0.02
0.09 0.06 0.04 0.03 0.03 0.03 0.03 0.03 0.03 0.04 0.05 0.07 0.10 0.12 0.13 0.14 0.14 0.14 0.13 0.10 0.10 0.11 0.13 0.12 0.11 0.09 0.09 0.09 0.09 0.09 0.09 0.09 0.09 0.09 0.09 0.08 0.07 0.06 0.04 0.03 0.03 0.03 0.03
0.09 0.08 0.04 0.03 0.03 0.03 0.04 0.04 0.04 0.05 0.06 0.07 0.09 0.12 0.13 0.15 0.15 0.15 0.13 0.10 0.09 0.08 0.10 0.10 0.10 0.10 0.09 0.09 0.09 0.10 0.10 0.10 0.10 0.10 0.09 0.08 0.07 0.06 0.05 0.04 0.03 0.03 0.02
0.09 0.09 0.07 0.04 0.03 0.04 0.04 0.04 0.04 0.04 0.06 0.07 0.07 0.10 0.11 0.10 0.09 0.09 0.09 0.09 0.10 0.09 0.08 0.08 0.09 0.10 0.10 0.10 0.10 0.10 0.09 0.09 0.09 0.09 0.08 0.07 0.06 0.05 0.05 0.04 0.04 0.03 0.03
0.09 0.08 0.07 0.05 0.04 0.05 0.05 0.05 0.04 0.04 0.05 0.06 0.08 0.11 0.13 0.10 0.08 0.08 0.08 0.08 0.09 0.10 0.10 0.09 0.08 0.09 0.09 0.10 0.10 0.10 0.09 0.08 0.07 0.07 0.07 0.07 0.06 0.05 0.04 0.03 0.03 0.03 0.03
0.08 0.07 0.06 0.05 0.04 0.06 0.07 0.07 0.06 0.05 0.05 0.06 0.08 0.09 0.10 0.10 0.09 0.08 0.08 0.09 0.10 0.11 0.12 0.11 0.09 0.09 0.08 0.08 0.08 0.08 0.08 0.07 0.06 0.06 0.06 0.06 0.06 0.05 0.04 0.03 0.03 0.02 0.02
0.09 0.09 0.07 0.06 0.06 0.07 0.07 0.08 0.09 0.08 0.07 0.07 0.07 0.07 0.07 0.08 0.09 0.10 0.10 0.10 0.11 0.11 0.11 0.11 0.09 0.08 0.07 0.07 0.07 0.08 0.07 0.07 0.07 0.07 0.07 0.06 0.05 0.04 0.03 0.03 0.02 0.02 0.02
0.09 0.09 0.08 0.07 0.07 0.07 0.07 0.09 0.10 0.09 0.08 0.07 0.07 0.06 0.06 0.07 0.08 0.09 0.10 0.09 0.09 0.10 0.10 0.10 0.09 0.08 0.08 0.08 0.08 0.07 0.08 0.09 0.09 0.08 0.08 0.07 0.05 0.04 0.03 0.03 0.02 0.02 0.02
0.08 0.08 0.08 0.08 0.07 0.07 0.07 0.07 0.08 0.09 0.08 0.07 0.06 0.06 0.06 0.06 0.07 0.08 0.08 0.08 0.07 0.07 0.09 0.09 0.08 0.07 0.08 0.08 0.09 0.11 0.11 0.10 0.10 0.09 0.08 0.06 0.04 0.04 0.03 0.03 0.03 0.02 0.02
MSLP
1006.36 1006.33 1006.22 1005.95 1005.45 1004.72 1003.81 1002.79 1001.76 1000.83 1000.10 999.63 999.46 999.59 999.97 1000.54 1001.24 1002.01 1002.79 1003.55 1004.27 1004.95 1005.61 1006.25 1006.89 1007.54 1008.19 1008.83 1009.46 1010.07 1010.64 1011.19 1011.70 1012.18 1012.64 1013.08 1013.49 1013.88 1014.25 1014.58 1014.88 1015.13 1015.33
1006.10 1006.08 1005.99 1005.74 1005.30 1004.62 1003.76 1002.77 1001.74 1000.78 999.98 999.42 999.14 999.14 999.41 999.89 1000.53 1001.27 1002.05 1002.83 1003.60 1004.33 1005.03 1005.70 1006.36 1007.00 1007.64 1008.28 1008.91 1009.54 1010.15 1010.74 1011.31 1011.86 1012.39 1012.89 1013.36 1013.80 1014.21 1014.57 1014.89 1015.16 1015.37
1005.87 1005.83 1005.74 1005.52 1005.11 1004.49 1003.68 1002.73 1001.72 1000.74 999.89 999.24 998.84 998.72 998.86 999.24 999.81 1000.51 1001.28 1002.10 1002.91 1003.71 1004.47 1005.19 1005.88 1006.55 1007.20 1007.83 1008.46 1009.08 1009.70 1010.31 1010.92 1011.52 1012.10 1012.66 1013.19 1013.69 1014.14 1014.55 1014.91 1015.21 1015.45
1005.64 1005.59 1005.49 1005.29 1004.92 1004.35 1003.60 1002.71 1001.73 1000.76 999.87 999.14 998.64 998.39 998.40 998.66 999.13 999.77 1000.53 1001.37 1002.23 1003.09 1003.92 1004.71 1005.46 1006.16 1006.82 1007.45 1008.07 1008.68 1009.30 1009.91 1010.54 1011.17 1011.79 1012.41 1012.99 1013.55 1014.06 1014.53 1014.94 1015.29 1015.57
1005.42 1005.34 1005.24 1005.05 1004.72 1004.22 1003.55 1002.73 1001.81 1000.86 999.95 999.16 998.56 998.18 998.05 998.18 998.53 999.09 999.82 1000.65 1001.56 1002.48 1003.39 1004.25 1005.06 1005.80 1006.49 1007.13 1007.75 1008.35 1008.95 1009.56 1010.19 1010.84 1011.50 1012.15 1012.79 1013.41 1013.99 1014.52 1014.99 1015.39 1015.73
1005.18 1005.08 1004.97 1004.81 1004.53 1004.11 1003.52 1002.79 1001.95 1001.04 1000.14 999.31 998.61 998.11 997.83 997.81 998.03 998.49 999.15 999.97 1000.89 1001.86 1002.83 1003.77 1004.65 1005.46 1006.19 1006.85 1007.47 1008.07 1008.67 1009.28 1009.91 1010.58 1011.26 1011.95 1012.65 1013.32 1013.96 1014.55 1015.08 1015.54 1015.91
1004.92 1004.80 1004.69 1004.55 1004.33 1004.00 1003.52 1002.89 1002.14 1001.30 1000.41 999.55 998.77 998.15 997.72 997.54 997.62 997.96 998.53 999.31 1000.23 1001.23 1002.27 1003.28 1004.24 1005.12 1005.91 1006.62 1007.27 1007.88 1008.49 1009.11 1009.75 1010.43 1011.15 1011.87 1012.61 1013.33 1014.01 1014.65 1015.23 1015.72 1016.13
1004.62 1004.48 1004.38 1004.27 1004.12 1003.87 1003.51 1003.00 1002.35 1001.58 1000.72 999.84 998.99 998.25 997.69 997.35 997.28 997.48 997.96 998.67 999.58 1000.61 1001.70 1002.79 1003.84 1004.80 1005.67 1006.45 1007.16 1007.82 1008.45 1009.10 1009.77 1010.48 1011.21 1011.97 1012.73 1013.47 1014.19 1014.85 1015.44 1015.96 1016.38
1004.28 1004.12 1004.03 1003.96 1003.87 1003.72 1003.46 1003.07 1002.52 1001.83 1001.01 1000.11 999.20 998.37 997.67 997.19 996.97 997.05 997.43 998.09 998.97 1000.03 1001.17 1002.34 1003.48 1004.55 1005.52 1006.39 1007.18 1007.90 1008.60 1009.29 1010.00 1010.74 1011.49 1012.27 1013.04 1013.79 1014.50 1015.15 1015.74 1016.24 1016.64
1003.89 1003.73 1003.64 1003.61 1003.58 1003.52 1003.36 1003.07 1002.62 1001.99 1001.21 1000.31 999.35 998.43 997.63 997.02 996.69 996.66 996.95 997.56 998.44 999.52 1000.72 1001.98 1003.22 1004.40 1005.49 1006.47 1007.35 1008.17 1008.94 1009.69 1010.45 1011.21 1011.98 1012.76 1013.52 1014.25 1014.93 1015.55 1016.09 1016.55 1016.91
1003.47 1003.30 1003.23 1003.23 1003.26 1003.27 1003.19 1002.99 1002.61 1002.04 1001.29 1000.38 999.39 998.41 997.52 996.83 996.40 996.30 996.54 997.13 998.01 999.13 1000.40 1001.75 1003.10 1004.39 1005.60 1006.70 1007.69 1008.61 1009.46 1010.27 1011.07 1011.86 1012.64 1013.41 1014.14 1014.83 1015.46 1016.02 1016.50 1016.89 1017.19
1003.06 1002.88 1002.82 1002.84 1002.91 1002.98 1002.96 1002.82 1002.49 1001.95 1001.22 1000.31 999.30 998.27 997.34 996.59 996.11 995.98 996.20 996.79 997.71 998.88 1000.23 1001.67 1003.13 1004.54 1005.86 1007.07 1008.17 1009.18 1010.10 1010.98 1011.82 1012.62 1013.40 1014.15 1014.84 1015.48 1016.04 1016.52 1016.92 1017.23 1017.47
1002.68 1002.50 1002.44 1002.48 1002.58 1002.67 1002.69 1002.57 1002.26 1001.74 1001.00 1000.08 999.06 998.01 997.06 996.30 995.82 995.69 995.94 996.57 997.55 998.79 1000.22 1001.75 1003.31 1004.82 1006.24 1007.55 1008.74 1009.82 1010.81 1011.73 1012.59 1013.41 1014.18 1014.90 1015.55 1016.12 1016.62 1017.02 1017.35 1017.59 1017.75
1002.38 1002.19 1002.13 1002.17 1002.27 1002.37 1002.38 1002.26 1001.94 1001.40 1000.65 999.72 998.68 997.64 996.70 995.97 995.53 995.45 995.76 996.46 997.51 998.83 1000.35 1001.96 1003.60 1005.19 1006.69 1008.07 1009.32 1010.45 1011.49 1012.44 1013.32 1014.14 1014.90 1015.59 1016.20 1016.73 1017.16 1017.51 1017.76 1017.94 1018.04
1002.18 1001.98 1001.92 1001.95 1002.03 1002.10 1002.08 1001.91 1001.55 1000.97 1000.19 999.24 998.21 997.18 996.28 995.61 995.24 995.25 995.65 996.44 997.58 998.98 1000.58 1002.26 1003.96 1005.61 1007.15 1008.57 1009.86 1011.02 1012.07 1013.04 1013.93 1014.75 1015.50 1016.17 1016.76 1017.26 1017.66 1017.96 1018.17 1018.29 1018.34
1002.08 1001.88 1001.80 1001.81 1001.85 1001.86 1001.78 1001.54 1001.10 1000.47 999.64 998.67 997.65 996.66 995.83 995.24 994.97 995.09 995.60 996.50 997.73 999.21 1000.87 1002.60 1004.34 1006.01 1007.58 1009.01 1010.30 1011.47 1012.53 1013.50 1014.40 1015.22 1015.97 1016.64 1017.22 1017.71 1018.10 1018.38 1018.57 1018.67 1018.68
1002.06 1001.86 1001.76 1001.72 1001.71 1001.64 1001.46 1001.13 1000.61 999.90 999.03 998.05 997.04 996.11 995.36 994.88 994.74 994.98 995.62 996.62 997.94 999.50 1001.20 1002.96 1004.71 1006.38 1007.94 1009.36 1010.64 1011.80 1012.86 1013.83 1014.73 1015.56 1016.32 1017.01 1017.60 1018.11 1018.50 1018.79 1018.97 1019.06 1019.05
1002.07 1001.86 1001.73 1001.64 1001.55 1001.39 1001.11 1000.67 1000.06 999.28 998.37 997.39 996.42 995.57 994.93 994.58 994.58 994.95 995.71 996.82 998.23 999.83 1001.57 1003.34 1005.07 1006.72 1008.25 1009.65 1010.91 1012.05 1013.10 1014.07 1014.97 1015.82 1016.60 1017.31 1017.94 1018.46 1018.88 1019.19 1019.38 1019.46 1019.44
1002.03 1001.80 1001.63 1001.48 1001.30 1001.04 1000.66 1000.12 999.43 998.59 997.67 996.72 995.83 995.08 994.57 994.37 994.52 995.04 995.92 997.13 998.60 1000.25 1001.99 1003.75 1005.46 1007.07 1008.56 1009.91 1011.14 1012.26 1013.30 1014.27 1015.18 1016.04 1016.85 1017.59 1018.24 1018.80 1019.25 1019.58 1019.78 1019.87 1019.83
1001.86 1001.61 1001.39 1001.17 1000.90 1000.54 1000.06 999.44 998.70 997.85 996.95 996.07 995.28 994.67 994.33 994.29 994.61 995.28 996.28 997.58 999.10 1000.77 1002.50 1004.23 1005.89 1007.45 1008.89 1010.20 1011.39 1012.49 1013.51 1014.48 1015.40 1016.28 1017.10 1017.87 1018.55 1019.13 1019.60 1019.94 1020.16 1020.24 1020.20
1001.49 1001.20 1000.92 1000.62 1000.27 999.82 999.27 998.61 997.86 997.04 996.22 995.45 994.82 994.39 994.24 994.39 994.88 995.70 996.82 998.19 999.75 1001.42 1003.13 1004.81 1006.41 1007.91 1009.29 1010.55 1011.70 1012.77 1013.78 1014.74 1015.66 1016.55 1017.38 1018.16 1018.85 1019.45 1019.92 1020.27 1020.48 1020.56 1020.51
1000.84 1000.50 1000.16 999.79 999.36 998.86 998.28 997.63 996.92 996.19 995.50 994.91 994.48 994.27 994.33 994.70 995.36 996.33 997.55 998.99 1000.57 1002.22 1003.88 1005.50 1007.04 1008.47 1009.78 1010.99 1012.09 1013.13 1014.11 1015.06 1015.98 1016.85 1017.69 1018.46 1019.15 1019.73 1020.20 1020.54 1020.75 1020.82 1020.76
999.89 999.49 999.08 998.65 998.18 997.66 997.10 996.51 995.91 995.33 994.84 994.47 994.29 994.33 994.63 995.21 996.06 997.16 998.48 999.95 1001.54 1003.15 1004.76 1006.31 1007.76 1009.12 1010.36 1011.50 1012.57 1013.57 1014.52 1015.44 1016.34 1017.20 1018.01 1018.76 1019.43 1019.99 1020.43 1020.75 1020.95 1021.01 1020.95
998.64 998.17 997.70 997.23 996.75 996.27 995.78 995.31 994.88 994.52 994.27 994.17 994.27 994.58 995.14 995.93 996.95 998.17 999.56 1001.06 1002.62 1004.19 1005.72 1007.19 1008.56 1009.83 1011.00 1012.08 1013.09 1014.06 1014.98 1015.87 1016.73 1017.56 1018.34 1019.06 1019.69 1020.22 1020.63 1020.93 1021.11 1021.16 1021.11
997.15 996.62 996.11 995.63 995.19 994.78 994.42 994.12 993.91 993.81 993.84 994.04 994.43 995.02 995.82 996.81 997.99 999.31 1000.74 1002.24 1003.76 1005.27 1006.72 1008.09 1009.38 1010.57 1011.67 1012.69 1013.66 1014.58 1015.47 1016.32 1017.15 1017.94 1018.68 1019.35 1019.95 1020.44 1020.82 1021.10 1021.26 1021.32 1021.28
995.51 994.93 994.42 993.97 993.60 993.32 993.13 993.05 993.10 993.28 993.62 994.12 994.79 995.64 996.66 997.83 999.12 1000.51 1001.96 1003.44 1004.91 1006.34 1007.71 1008.99 1010.19 1011.31 1012.34 1013.32 1014.24 1015.12 1015.98 1016.80 1017.59 1018.35 1019.05 1019.68 1020.23 1020.68 1021.04 1021.30 1021.45 1021.52 1021.51
Thickness
5540 5544 5549 5554 5560 5566 5572 5579 5585 5590 5595 5598 5602 5605 5609 5612 5613 5614 5615 5615 5614 5611 5609 5607 5604 5601 5598 5595 5592 5588 5584 5580 5574 5567 5561 5557 5551 5546 5541 5535 5530 5524 5517
5533 5538 5543 5549 5554 5559 5566 5573 5579 5585 5590 5594 5598 5601 5604 5608 5610 5612 5612 5611 5609 5607 5605 5603 5601 5597 5593 5590 5587 5582 5578 5575 5569 5562 5555 5549 5544 5539 5533 5527 5521 5515 5509
5527 5532 5537 5542 5548 5553 5560 5566 5572 5579 5585 5590 5593 5597 5601 5604 5607 5608 5608 5608 5606 5604 5602 5600 5598 5593 5589 5586 5582 5578 5574 5569 5564 5558 5550 5542 5536 5531 5525 5519 5512 5506 5500
5521 5525 5531 5537 5542 5548 5554 5559 5566 5573 5579 5585 5589 5594 5598 5601 5603 5604 5604 5603 5601 5599 5598 5596 5594 5591 5587 5582 5577 5573 5568 5562 5557 5552 5544 5536 5529 5523 5517 5510 5503 5497 5491
5515 5519 5524 5529 5535 5541 5547 5553 5559 5566 5573 5578 5582 5588 5593 5596 5599 5600 5599 5598 5597 5594 5592 5591 5589 5587 5584 5579 5575 5569 5564 5558 5552 5546 5539 5531 5523 5515 5511 5504 5496 5489 5482
5509 5513 5517 5522 5528 5533 5539 5546 5551 5558 5564 5569 5575 5582 5587 5590 5593 5594 5593 5593 5591 5589 5588 5585 5583 5580 5578 5575 5572 5567 5562 5556 5549 5543 5536 5529 5522 5514 5506 5498 5489 5480 5474
5502 5507 5511 5515 5520 5526 5532 5538 5544 5550 5556 5562 5567 5574 5580 5583 5585 5587 5588 5587 5586 5585 5583 5579 5576 5575 5572 5569 5565 5561 5557 5554 5550 5543 5535 5529 5521 5513 5503 5492 5484 5476 5469
5494 5499 5503 5508 5512 5518 5524 5530 5535 5541 5547 5553 5560 5566 5571 5576 5579 5581 5580 5580 5579 5578 5576 5574 5572 5570 5566 5563 5558 5552 5549 5546 5542 5538 5533 5526 5519 5510 5502 5492 5481 5469 5460
5485 5490 5495 5500 5505 5510 5515 5520 5526 5533 5539 5546 5552 5557 5562 5568 5571 5573 5572 5571 5571 5571 5570 5569 5567 5565 5562 5557 5552 5546 5541 5536 5534 5530 5525 5519 5511 5503 5495 5484 5472 5463 5454
5478 5483 5487 5492 5497 5502 5508 5513 5518 5525 5531 5538 5543 5549 5555 5560 5563 5565 5565 5565 5565 5564 5563 5562 5561 5559 5556 5552 5548 5542 5536 5530 5525 5519 5514 5508 5501 5494 5487 5480 5471 5460 5449
5472 5476 5480 5485 5489 5495 5500 5505 5510 5517 5523 5529 5534 5540 5545 5551 5554 5556 5558 5558 5559 5558 5556 5555 5554 5552 5550 5547 5543 5539 5534 5526 5518 5511 5504 5497 5491 5484 5478 5472 5465 5457 5447
5463 5468 5473 5477 5482 5488 5493 5497 5502 5509 5514 5519 5524 5530 5535 5540 5544 5547 5549 5550 5551 5551 5551 5551 5549 5546 5543 5540 5536 5532 5525 5517 5510 5502 5495 5488 5482 5476 5470 5464 5457 5450 5444
5456 5460 5464 5469 5474 5480 5485 5490 5495 5501 5506 5511 5516 5521 5526 5531 5535 5537 5540 5541 5543 5543 5544 5544 5542 5539 5535 5531 5527 5522 5515 5509 5503 5496 5489 5482 5475 5469 5462 5455 5447 5441 5435
5449 5453 5457 5462 5467 5471 5476 5482 5487 5493 5498 5502 5507 5512 5517 5521 5525 5528 5530 5532 5534 5534 5534 5533 5531 5528 5526 5522 5517 5512 5507 5502 5497 5491 5483 5474 5466 5460 5454 5448 5440 5434 5426
5443 5447 5450 5455 5459 5464 5469 5474 5479 5485 5489 5495 5499 5504 5508 5513 5518 5522 5524 5526 5526 5526 5524 5521 5519 5517 5514 5510 5506 5502 5497 5493 5488 5482 5474 5466 5459 5453 5447 5441 5434 5427 5420
5436 5439 5443 5447 5452 5456 5461 5466 5470 5476 5481 5486 5492 5497 5501 5506 5509 5513 5515 5518 5519 5518 5516 5514 5512 5511 5508 5504 5499 5494 5490 5486 5481 5475 5468 5462 5455 5448 5441 5434 5428 5421 5414
5428 5432 5435 5439 5443 5448 5452 5456 5462 5467 5472 5477 5483 5489 5494 5498 5502 5505 5507 5509 5510 5511 5509 5508 5506 5504 5501 5497 5494 5490 5485 5480 5475 5469 5462 5456 5449 5443 5436 5429 5423 5415 5408
5421 5425 5429 5432 5435 5439 5443 5448 5453 5458 5463 5469 5474 5479 5485 5490 5494 5497 5499 5500 5499 5500 5502 5502 5500 5498 5494 5491 5487 5483 5478 5473 5467 5462 5456 5450 5444 5438 5432 5425 5418 5411 5404
5414 5418 5421 5425 5428 5432 5436 5440 5444 5449 5454 5459 5464 5469 5475 5481 5485 5488 5491 5493 5494 5493 5493 5493 5492 5491 5488 5485 5481 5477 5472 5467 5462 5456 5451 5445 5440 5434 5427 5421 5413 5407 5399
5407 5411 5415 5418 5421 5425 5428 5432 5436 5441 5445 5451 5456 5461 5465 5470 5474 5478 5481 5483 5486 5486 5486 5485 5484 5483 5481 5478 5475 5470 5465 5460 5455 5451 5446 5440 5435 5430 5423 5416 5409 5402 5395
5400 5404 5408 5410 5413 5416 5420 5423 5428 5433 5438 5443 5448 5453 5459 5464 5467 5470 5472 5475 5477 5478 5478 5478 5477 5476 5474 5472 5469 5464 5460 5455 5451 5446 5441 5436 5430 5425 5418 5412 5405 5398 5391
5392 5396 5399 5402 5405 5408 5411 5416 5420 5425 5431 5436 5441 5445 5452 5456 5459 5462 5464 5466 5469 5470 5471 5471 5471 5470 5469 5467 5465 5461 5456 5451 5447 5442 5437 5431 5426 5420 5414 5408 5401 5394 5388
5384 5388 5391 5394 5397 5401 5405 5408 5413 5419 5424 5428 5434 5438 5442 5446 5450 5454 5456 5459 5460 5462 5463 5464 5464 5463 5462 5461 5460 5458 5455 5450 5446 5441 5434 5428 5422 5417 5411 5404 5398 5392 5385
5377 5381 5385 5388 5391 5394 5398 5402 5407 5412 5417 5422 5427 5431 5435 5438 5442 5446 5449 5450 5452 5454 5455 5456 5458 5458 5457 5455 5454 5452 5450 5446 5442 5437 5432 5426 5420 5414 5408 5401 5395 5389 5383
5372 5375 5379 5383 5386 5389 5393 5397 5402 5406 5412 5416 5420 5424 5427 5431 5434 5438 5441 5443 5445 5447 5448 5449 5451 5451 5450 5450 5449 5447 5444 5440 5437 5432 5426 5422 5416 5410 5405 5399 5392 5385 5379
5366 5370 5374 5377 5381 5384 5388 5392 5397 5402 5406 5410 5413 5416 5421 5425 5428 5431 5433 5435 5438 5440 5441 5442 5444 5444 5444 5444 5443 5441 5438 5435 5431 5427 5422 5418 5412 5406 5401 5395 5388 5382 5375